Location: Newark
(31.5350°N, 35.0986°E)
Time: 15:37:50
(UTC+00:00)

Vanguard 1 - Pass Details

Date: 22 September 2019
Orbit: 653 x 3830 km, 34.2° (Epoch: 20 October)

Event Time Altitude Azimuth Distance (km) Brightness Sun altitude
Rises 18:05:02 0° 167° (SSE) 6,344 - -31.7°
Reaches altitude 10° 18:17:22 10° 130° (SE) 6,323 - -34.1°
Maximum altitude 18:19:14 10° 125° (SE) 6,418 - -34.4°
Drops below altitude 10° 18:21:08 10° 119° (ESE) 6,535 - -34.8°
Sets 18:36:14 0° 85° (E) 7,972 - -37.7°
